Regional Weather Roundup
Issued by NWS Burlington, VT

Current Version | Previous Version | Text Only | Print | Product List | Glossary On
Versions: 1 2 3 4 5 6 7 8 9 10 11 12 13 14 15 16 17 18 19 20 21 22 23 24 25 26 27 28 29 30 31 32 33 34 35 36 37 38 39 40 41 42 43 44 45 46 47 48 49 50
000
ASUS41 KBTV 301510
RWRBTV
VERMONT REGIONAL WEATHER ROUNDUP
NATIONAL WEATHER SERVICE BURLINGTON VT
1100 AM EDT TUE JUN 30 2015

NOTE: "FAIR" INDICATES FEW OR NO CLOUDS BELOW 12,000 FEET WITH NO
SIGNIFICANT WEATHER AND/OR OBSTRUCTIONS TO VISIBILITY.

* THESE REPORTS ARE NOT UNDER NWS QUALITY CONTROL AND/OR DO NOT
  REPORT WEATHER SUCH AS PRECIPITATION AND FOG.

VTZ001>019-301600-
_____VERMONT_____


CITY           SKY/WX    TMP DP  RH WIND       PRES   REMARKS
BURLINGTON     MOSUNNY   73  56  54 SW9       29.96F
MONTPELIER     MOSUNNY   69  54  58 S3        30.03F
MORRISVILLE    MOSUNNY   73  58  59 CALM      29.99F
ST. JOHNSBURY*   N/A     70  54  56 MISG      29.97F
LYNDONVILLE*   FAIR      68  55  63 CALM      30.01F
MIDDLEBURY*    FAIR      72  59  63 CALM      29.98S
RUTLAND*       PTSUNNY   68  55  64 CALM      29.99S
SPRINGFIELD    CLOUDY    70  54  56 VRB3      30.00F
HIGHGATE*      FAIR      72  57  58 SW7       29.95F
NEWPORT*       FAIR      70  54  57 S5        29.99F
BENNINGTON     CLOUDY    71  58  63 CALM      29.99S
SUTTON*          N/A     68 N/A N/A MISG        N/A

_____LAKE CHAMPLAIN_____


CITY           SKY/WX    TMP DP  RH WIND       PRES   REMARKS

$$

NYZ007-026>031-035-052-083-301600-
_____NORTHERN NEW YORK_____


CITY           SKY/WX    TMP DP  RH WIND       PRES   REMARKS
PLATTSBURGH    MOSUNNY   71  61  70 S10       29.95F
SARANAC LAKE   MOSUNNY   71  52  50 S7        29.96F
MASSENA        SUNNY     76  56  49 CALM      29.93S
OGDENSBURG*    SUNNY     75  61  60 CALM      29.91F
POTSDAM*       SUNNY     75  61  60 S5        29.92F
WATERTOWN      LGT RAIN  67  57  70 E3        29.89F
FT DRUM        CLOUDY    65  55  70 SE9       29.91F
ALBANY         CLOUDY    70  57  63 CALM      29.98S
GLENS FALLS    PTSUNNY   69  57  65 CALM      29.97F

$$
NHZ002-005-011-301600-
_____NEW HAMPSHIRE_____


CITY           SKY/WX    TMP DP  RH WIND       PRES   REMARKS
LEBANON        SUNNY     69  56  62 CALM      30.00S
KEENE          SUNNY     72  52  49 CALM      30.00R
MT WASHINGTON  PTSUNNY   50  39  66 CALM        N/A
PLYMOUTH       FAIR      72  60  67 CALM      29.99S
WHITEFIELD     SUNNY     71  55  56 CALM      30.00F

$$

_____REGIONAL QUEBEC LOCATIONS_____


CITY           SKY/WX    TMP DP  RH WIND       PRES   REMARKS
MONTREAL       MOSUNNY   72  57  60 S7        29.93F
QUEBEC CITY    CLOUDY    64  59  82 W6        29.95F
SHERBROOKE     MOSUNNY   72  57  60 SW8       29.97F

_____REGIONAL ONTARIO LOCATIONS_____


CITY           SKY/WX    TMP DP  RH WIND       PRES   REMARKS
OTTAWA         PTSUNNY   73  59  60 S3        29.92F

______KEY______
VSB  - VISIBILITY IN MILES
WCI  - WIND CHILL INDEX
HX   - HEAT INDEX
$$
NNNN


USA.gov is the U.S. government's official web portal to all federal, state and local government web resources and services.